Regional Weather Roundup
Issued by NWS Boston, MA

Home | Current Version | Previous Version | Text Only | Print | Product List | Glossary On
Versions: 1 2 3 4 5 6 7 8 9 10 11 12 13 14 15 16 17 18 19 20 21 22 23 24 25 26 27 28 29 30 31 32 33 34 35 36 37 38 39 40 41 42 43 44 45 46 47 48 49 50
000
ASUS41 KBOX 301910
RWRBOX

REGIONAL WEATHER ROUNDUP
NATIONAL WEATHER SERVICE TAUNTON MA
300 PM EDT SUN APR 30 2017

NOTE:  "FAIR" INDICATES FEW OR NO CLOUDS BELOW 12,000 FEET WITH NO
SIGNIFICANT WEATHER AND/OR OBSTRUCTIONS TO VISIBILITY.

MAZALL-302000-
EASTERN MASSACHUSETTS

CITY           SKY/WX    TMP DP  RH WIND       PRES   REMARKS
BOSTON         CLOUDY    46  38  73 SE16      30.29F
BEVERLY        CLOUDY    45  36  70 SE10      30.28F
LAWRENCE       CLOUDY    50  38  63 VRB6      30.30S
BEDFORD        CLOUDY    50  36  58 E10       30.26F
BLUE HILL        N/A     45  38  76 E15       30.25F
NORWOOD        CLOUDY    48  41  76 E7        30.28F
MARSHFIELD     LGT RAIN  43  37  81 E8G17     30.29F
PLYMOUTH       CLOUDY    46  32  58 E9        30.29F
TAUNTON        LGT RAIN  50  34  54 E8        30.27F
NEW BEDFORD    CLOUDY    52  33  48 E15       30.25F
$$

MAZALL-302000-
CAPE COD AND THE ISLANDS

CITY           SKY/WX    TMP DP  RH WIND       PRES   REMARKS
FALMOUTH       CLOUDY    48  34  57 MISG      30.30F
HYANNIS        CLOUDY    49  34  56 NE8       30.30R
CHATHAM        CLOUDY    47  34  60 NE8       30.34R
PROVINCETOWN   LGT RAIN  43  37  79 E10       30.29F
NANTUCKET      CLOUDY    48  34  58 NE10      30.33R
MARTHAS VNYRD  CLOUDY    50  36  58 E17G23    30.31R
$$

MAZALL-302000-
CENTRAL AND WESTERN MASSACHUSETTS

CITY           SKY/WX    TMP DP  RH WIND       PRES   REMARKS
WORCESTER      CLOUDY    51  40  65 NE5       30.24F
FITCHBURG      CLOUDY    58  35  42 CALM      30.25F
ORANGE         CLOUDY    51  40  65 W3        30.24F
SPRINGFIELD    CLOUDY    51  43  75 NE6       30.24F
WESTFIELD      CLOUDY    51  47  86 N5        30.25F
NORTH ADAMS    CLOUDY    49  41  74 W6        30.24S
PITTSFIELD     LGT RAIN  49  41  74 E3        30.22F
$$

RIZALL-302000-
RHODE ISLAND

CITY           SKY/WX    TMP DP  RH WIND       PRES   REMARKS
PROVIDENCE     PTSUNNY   57  40  52 S20       30.25F
NEWPORT        CLOUDY    53  39  59 E13G23    30.25F
BLOCK ISLAND   CLOUDY    50  39  66 SE20      30.26F
SMITHFIELD     CLOUDY    51  46  83 NE10      30.25R
WESTERLY       CLOUDY    51  41  68 SE14G24   30.27F
$$

CTZALL-302000-
CONNECTICUT

CITY           SKY/WX    TMP DP  RH WIND       PRES   REMARKS
BRADLEY INTL   CLOUDY    51  43  74 NE8       30.26S
HARTFORD       CLOUDY    58  40  51 N9        30.25S
BRIDGEPORT     CLOUDY    55  43  63 E12       30.25F
DANBURY        CLOUDY    56  42  59 SE12      30.24R
GROTON         CLOUDY    50  40  68 SE14      30.26F
NEW HAVEN      CLOUDY    52  42  69 E14G22    30.26F
CHESTER        CLOUDY    52  37  58 E9G16     30.26F
MERIDEN        CLOUDY    58  41  53 SE7       30.25S
WILLIMANTIC    CLOUDY    59  41  51 S10       30.24F
OXFORD         CLOUDY    54  39  58 S13       30.25R
$$

MEZ002-015-021-024-NHZ003-005-008-011-012-014-VTZ005-008-302000-
NORTHERN NEW ENGLAND

CITY           SKY/WX    TMP DP  RH WIND       PRES   REMARKS
PORTLAND ME    CLOUDY    46  29  51 S8        30.26F
BANGOR ME      CLOUDY    55  25  31 VRB3      30.23F
CONCORD NH     CLOUDY    55  30  38 SE3       30.23F
MANCHESTER NH  CLOUDY    56  28  34 VRB5      30.24F
NASHUA NH      RAIN      54  42  64 VRB7      30.28S
PORTSMOUTH NH  CLOUDY    46  32  57 S9        30.27F
JAFFREY NH     CLOUDY    52  43  71 S6        30.24F
KEENE NH       LGT RAIN  52  36  54 NW3       30.25F
BURLINGTON VT  CLOUDY    43  33  68 W5        30.26F
MT. WASHINGTON LGT RAIN  36  28  75 W12         N/A  WCI  27
$$

NYZ052-076-302000-
EASTERN NEW YORK

CITY           SKY/WX    TMP DP  RH WIND       PRES   REMARKS
ALBANY         CLOUDY    49  34  56 VRB6      30.25F
NEW YORK CITY  CLOUDY    61  40  45 SE10      30.23F
$$

ANZALL-302000-
MARINE OBSERVATIONS

STATION/POSITION TIME  TEMP    WIND        PRES    VSBY  WAVE
                       AIR SEA DIR/SP/G                  HT/PER
                 (UTC) (F)     (DEG/KT/KT) (MB)    (MI)  (FT/S)
BOSTON BUOY      1850   44 49  110/ 12/ 16 1024.6F         3/ 6
BUZZARDS BAY     1800   47     110/ 10/ 11 1026.5R
NANTUCKET SOUND  1850      50              1027.1R         2/ 3
MASS BAY-STELLWA 1804   45 47  130/  6/  8 1026.9R         4/ 6
ISLE OF SHOALS   1800   44     150/ 12/ 12 1026.5F
S OF BLOCK IS    1855      49                N/A           4/ 7
$$

......................KEY.........................
  SKY/WX - SKY CONDITION/PRESENT WEATHER
  TMP    - TEMPERATURE IN FAHRENHEIT
  DWPT   - DEWPOINT IN FAHRENHEIT
  RH     - RELATIVE HUMIDITY IN PERCENT
  WIND   - DIRECTION AND SPEED IN MPH
  PRES   - MEAN SEA LEVEL PRESSURE IN INCHES OF HG
  WCI    - WIND CHILL INDEX
  VSB    - VISIBILITY IN MILES
  HX     - HEAT INDEX
  TC     - TEMPERATURE IN CELSIUS
  VRB    - VARIABLE WIND DIRECTION
  N/A    - NOT AVAILABLE



USA.gov is the U.S. government's official web portal to all federal, state and local government web resources and services.